Fayetteville, Georgia, United States (30214)
Lat: 33.45N, Lon: 84.45W
Wx Zone: GAZ054
Local Info
Past Weather Observations for Today

NOTE: This archive is for the closest National Weather Service station to Fayetteville. Information may differ from the station used for current weather conditions.

Click here for Long-term Archive

Time Weather Temperature Dewpoint Humidity Pressure Winds Precip Visibility
18:53
Clear
66°F / 19°C 45°F / 7°C 46% 30.09 in
(1019 mb)
SSW 3.5 mph
(SSW 6 kph)
- 10SM
17:53
Clear
72°F / 22°C 43°F / 6°C 36% 30.09 in
(1019 mb)
W 9.2 mph
(W 15 kph)
- 10SM
16:53
Clear
72°F / 22°C 43°F / 6°C 36% 30.09 in
(1019 mb)
W 10.4 mph
(W 17 kph)
- 10SM
15:53
Clear
72°F / 22°C 45°F / 7°C 38% 30.12 in
(1020 mb)
W 9.2 mph
(W 15 kph)
- 10SM
14:53
Clear
70°F / 21°C 48°F / 9°C 46% 30.12 in
(1020 mb)
W 8.1 mph
(W 13 kph)
- 10SM
13:53
Mostly Cloudy
68°F / 20°C 54°F / 12°C 60% 30.15 in
(1021 mb)
NNW 10.4 mph
(NNW 17 kph)
- 10SM
13:15
Mostly Cloudy
64°F / 18°C 55°F / 13°C 73% 30.15 in
(1021 mb)
Variable 5.8 mph
(Variable 9 kph)
- 10SM
12:53
Mostly Cloudy
63°F / 17°C 55°F / 13°C 77% 30.18 in
(1022 mb)
SSW 6.9 mph
(SSW 11 kph)
- 10SM
12:25
Overcast
61°F / 16°C 55°F / 13°C 83% 30.18 in
(1022 mb)
NW 5.8 mph
(NW 9 kph)
- 10SM
12:02
Overcast
61°F / 16°C 55°F / 13°C 83% 30.18 in
(1022 mb)
WNW 6.9 mph
(WNW 11 kph)
- 10SM
11:53
Overcast
59°F / 15°C 55°F / 13°C 88% 30.18 in
(1022 mb)
NW 6.9 mph
(NW 11 kph)
- 8SM
11:02
Overcast
59°F / 15°C 55°F / 13°C 88% 30.18 in
(1022 mb)
W 6.9 mph
(W 11 kph)
- 10SM
10:53
Overcast
59°F / 15°C 55°F / 13°C 88% 30.18 in
(1022 mb)
W 9.2 mph
(W 15 kph)
- 10SM
10:32
Overcast
57°F / 14°C 55°F / 13°C 94% 30.18 in
(1022 mb)
SSW 4.6 mph
(SSW 7 kph)
- 10SM
09:53
Overcast
57°F / 14°C 54°F / 12°C 88% 30.18 in
(1022 mb)
W 6.9 mph
(W 11 kph)
- 10SM
08:53
Partly Cloudy
55°F / 13°C 54°F / 12°C 94% 30.15 in
(1021 mb)
Calm 0.05 in
(1.27 mm)
10SM
08:32
Mostly Cloudy
54°F / 12°C 54°F / 12°C 100% 30.12 in
(1020 mb)
S 6.9 mph
(S 11 kph)
0.05 in
(1.27 mm)
9SM
08:24
Overcast
Light Rain
54°F / 12°C 54°F / 12°C 100% 30.12 in
(1020 mb)
S 6.9 mph
(S 11 kph)
0.05 in
(1.27 mm)
5SM
07:56
Overcast
Rain
54°F / 12°C 52°F / 11°C 94% 30.18 in
(1022 mb)
S 6.9 mph
(S 11 kph)
0.00 in
(0.00 mm)
2SM
07:53
Overcast
Thunder Storms
54°F / 12°C 52°F / 11°C 94% 30.18 in
(1022 mb)
Variable 5.8 mph
(Variable 9 kph)
0.20 in
(5.08 mm)
1 1/2SM
07:46
Overcast
Thunder Storms
54°F / 12°C 52°F / 11°C 94% 30.18 in
(1022 mb)
Variable 3.5 mph
(Variable 6 kph)
0.17 in
(4.32 mm)
1 1/4SM
07:36
Overcast
Thunder Storms
54°F / 12°C 52°F / 11°C 94% 30.18 in
(1022 mb)
Calm 0.11 in
(2.79 mm)
2 1/2SM
07:19
Overcast
Thunder Storms
52°F / 11°C 52°F / 11°C 100% 30.21 in
(1023 mb)
SSE 3.5 mph
(SSE 6 kph)
0.06 in
(1.52 mm)
1 3/4SM
07:08
Overcast
Thunder Storms
54°F / 12°C 52°F / 11°C 94% 30.21 in
(1023 mb)
W 3.5 mph
(W 6 kph)
0.03 in
(0.76 mm)
2 1/2SM
07:00
Overcast
Thunder Storms
54°F / 12°C 52°F / 11°C 94% 30.21 in
(1023 mb)
WNW 3.5 mph
(WNW 6 kph)
0.02 in
(0.51 mm)
1 1/2SM
06:53
Overcast
Thunder Storms
54°F / 12°C 52°F / 11°C 94% 30.21 in
(1023 mb)
NW 6.9 mph
(NW 11 kph)
0.19 in
(4.83 mm)
1 1/4SM
06:41
Overcast
Thunder Storms
54°F / 12°C 50°F / 10°C 88% 30.21 in
(1023 mb)
NNW 8.1 mph
(NNW 13 kph)
0.07 in
(1.78 mm)
1 3/4SM
06:39
Overcast
Heavy Rain
54°F / 12°C 50°F / 10°C 88% 30.21 in
(1023 mb)
NNW 10.4 mph
(NNW 17 kph)
0.06 in
(1.52 mm)
1 3/4SM
06:32
Overcast
Light Rain
55°F / 13°C 50°F / 10°C 82% 30.18 in
(1022 mb)
NNW 18.4 mph
(NNW 30 kph)
0.02 in
(0.51 mm)
4SM
05:53
Overcast
57°F / 14°C 50°F / 10°C 77% 30.12 in
(1020 mb)
Variable 6.9 mph
(Variable 11 kph)
- 10SM
04:53
Overcast
55°F / 13°C 48°F / 9°C 77% 30.12 in
(1020 mb)
Variable 6.9 mph
(Variable 11 kph)
- 10SM
03:53
Overcast
52°F / 11°C 39°F / 4°C 62% 30.15 in
(1021 mb)
Calm - 10SM
02:53
Mostly Cloudy
48°F / 9°C 36°F / 2°C 62% 30.15 in
(1021 mb)
SSE 3.5 mph
(SSE 6 kph)
- 10SM
01:53
Clear
50°F / 10°C 32°F / 0°C 50% 30.18 in
(1022 mb)
SSE 4.6 mph
(SSE 7 kph)
- 10SM
00:53
Partly Cloudy
50°F / 10°C 30°F / -1°C 47% 30.21 in
(1023 mb)
SSE 5.8 mph
(SSE 9 kph)
- 10SM
Time Weather Temperature Dewpoint Humidity Pressure Winds Precip Visibility


Weather for websites

WeatherForYou.com, LLC is not responsible for any damages or problems caused by this service. Current weather conditions are obtained from the closest station including government and personal stations which may have varying degrees of accuracy. Weather forecasts are derived from the NOAA NDFD. Like all things, this site belongs to Jesus Christ... He just trusts me to maintain it. If you have any questions or comments email webmaster@weatherforyou.com

Copyright © 2015, WeatherForYou.com LLC. All rights reserved.